WZZ17MM EGAA-EGPH

Flight info

Callsign WZZ17MM
Flight time N/A
Altitude 39000
Route GRICE P600 ASNUD DCT LESNI DCT OVDAN DCT KLONN DCT RIPAM
Aircraft A32N/M-V/N

Departure

Time N/A
Airport Belfast International Airport (EGAA)

Arrival

Time 2026-04-21 13:55
Airport Edinburgh Airport (EGPH)
Time Latitude Longitude Altitude Speed Heading
2026-04-21 13:55 55.94949 -3.36366 103 ft 0 kts 148°
2026-04-21 13:59 55.94951 -3.36368 103 ft 0 kts 147°
2026-04-21 13:59 55.94953 -3.36371 103 ft 0 kts 147°
2026-04-21 14:06 55.94962 -3.36382 103 ft 2 kts 147°
2026-04-21 14:06 55.94975 -3.36396 103 ft 2 kts 147°
2026-04-21 14:06 55.94987 -3.36410 103 ft 2 kts 147°
2026-04-21 14:06 55.94998 -3.36423 103 ft 1 kts 162°
2026-04-21 14:07 55.95008 -3.36420 103 ft 1 kts 223°
2026-04-21 14:07 55.95011 -3.36412 103 ft 1 kts 246°
2026-04-21 14:07 55.95013 -3.36405 103 ft 0 kts 238°
2026-04-21 14:08 55.95008 -3.36422 103 ft 3 kts 238°
2026-04-21 14:09 55.94986 -3.36487 103 ft 9 kts 238°
2026-04-21 14:09 55.94947 -3.36603 103 ft 12 kts 238°
2026-04-21 14:09 55.94902 -3.36743 101 ft 14 kts 252°
2026-04-21 14:09 55.94921 -3.36903 100 ft 13 kts 246°
2026-04-21 14:10 55.94871 -3.37057 101 ft 15 kts 240°
2026-04-21 14:10 55.94810 -3.37240 102 ft 18 kts 237°
2026-04-21 14:10 55.94735 -3.37458 102 ft 22 kts 238°
2026-04-21 14:10 55.94651 -3.37709 103 ft 24 kts 238°
2026-04-21 14:11 55.94561 -3.37974 107 ft 24 kts 238°
2026-04-21 14:11 55.94474 -3.38235 110 ft 23 kts 238°
2026-04-21 14:11 55.94389 -3.38478 112 ft 22 kts 239°
2026-04-21 14:11 55.94317 -3.38697 113 ft 19 kts 237°
2026-04-21 14:12 55.94304 -3.38886 115 ft 16 kts 325°
2026-04-21 14:12 55.94403 -3.38972 114 ft 13 kts 10°
2026-04-21 14:12 55.94466 -3.38817 112 ft 21 kts 59°
2026-04-21 14:12 55.94674 -3.38207 106 ft 94 kts 58°
2026-04-21 14:13 55.95134 -3.36861 156 ft 148 kts 58°
2026-04-21 14:13 55.95658 -3.35302 794 ft 150 kts 60°
2026-04-21 14:13 55.96267 -3.33797 1536 ft 153 kts 48°
2026-04-21 14:13 55.97021 -3.32556 2276 ft 152 kts 45°
2026-04-21 14:14 55.97855 -3.31227 2746 ft 169 kts 45°
2026-04-21 14:14 55.98762 -3.29780 3213 ft 185 kts 45°
2026-04-21 14:14 55.99847 -3.28348 3678 ft 206 kts 27°
2026-04-21 14:14 56.01343 -3.27669 4105 ft 233 kts 16°
2026-04-21 14:15 56.02966 -3.27090 4662 ft 251 kts 16°
2026-04-21 14:15 56.04718 -3.26466 5456 ft 260 kts 16°
2026-04-21 14:15 56.06485 -3.25835 6356 ft 264 kts 16°
2026-04-21 14:15 56.08288 -3.25209 7248 ft 269 kts 15°
2026-04-21 14:16 56.10126 -3.24625 8138 ft 273 kts 14°
2026-04-21 14:16 56.12006 -3.24038 9036 ft 278 kts 14°
2026-04-21 14:16 56.13904 -3.23441 9886 ft 283 kts 15°
2026-04-21 14:16 56.15833 -3.22830 10744 ft 286 kts 15°
2026-04-21 14:17 56.17813 -3.22197 11393 ft 298 kts 15°
2026-04-21 14:17 56.19936 -3.21512 11852 ft 317 kts 14°
2026-04-21 14:17 56.22155 -3.20797 12257 ft 335 kts 14°
2026-04-21 14:17 56.24501 -3.20042 12620 ft 353 kts 14°
2026-04-21 14:18 56.26924 -3.19108 12931 ft 367 kts 21°
2026-04-21 14:18 56.29285 -3.17144 13241 ft 379 kts 34°
2026-04-21 14:18 56.31400 -3.14306 13724 ft 385 kts 42°
2026-04-21 14:18 56.33474 -3.11173 14428 ft 389 kts 43°
2026-04-21 14:19 56.35541 -3.08033 15135 ft 391 kts 43°
2026-04-21 14:19 56.37639 -3.04947 15789 ft 395 kts 41°
2026-04-21 14:19 56.39791 -3.01819 16437 ft 398 kts 41°
2026-04-21 14:19 56.41927 -2.98687 17063 ft 401 kts 41°
2026-04-21 14:20 56.44103 -2.95490 17671 ft 405 kts 41°
2026-04-21 14:20 56.46286 -2.92276 18258 ft 408 kts 41°
2026-04-21 14:20 56.48501 -2.89012 18829 ft 411 kts 41°
2026-04-21 14:20 56.50721 -2.85737 19396 ft 414 kts 41°
2026-04-21 14:21 56.52956 -2.82435 19936 ft 418 kts 41°
2026-04-21 14:21 56.55178 -2.79144 20452 ft 421 kts 41°
2026-04-21 14:21 56.57464 -2.75753 20954 ft 424 kts 41°
2026-04-21 14:21 56.59747 -2.72364 21433 ft 428 kts 41°
2026-04-21 14:22 56.62026 -2.68978 21898 ft 431 kts 41°
2026-04-21 14:22 56.64342 -2.65531 22361 ft 434 kts 41°
2026-04-21 14:22 56.66695 -2.62025 22819 ft 437 kts 41°
2026-04-21 14:22 56.69030 -2.58540 23256 ft 440 kts 41°
2026-04-21 14:23 56.71401 -2.54995 23671 ft 443 kts 41°
2026-04-21 14:23 56.73760 -2.51462 24070 ft 446 kts 41°
2026-04-21 14:23 56.76170 -2.47847 24445 ft 448 kts 41°
2026-04-21 14:23 56.78569 -2.44241 24801 ft 450 kts 41°
2026-04-21 14:24 56.80976 -2.40617 25273 ft 450 kts 41°
2026-04-21 14:24 56.83365 -2.37017 25775 ft 448 kts 41°
2026-04-21 14:24 56.85757 -2.33403 26243 ft 448 kts 42°
2026-04-21 14:24 56.88127 -2.29818 26694 ft 447 kts 42°
2026-04-21 14:25 56.90536 -2.26168 27145 ft 446 kts 42°
2026-04-21 14:25 56.92891 -2.22593 27586 ft 446 kts 42°
2026-04-21 14:25 56.95276 -2.18967 28035 ft 445 kts 42°
2026-04-21 14:25 56.97650 -2.15349 28465 ft 445 kts 42°
2026-04-21 14:26 57.00008 -2.11752 28900 ft 444 kts 42°
2026-04-21 14:26 57.02356 -2.08161 29328 ft 443 kts 42°
2026-04-21 14:26 57.04732 -2.04523 29759 ft 443 kts 42°
2026-04-21 14:26 57.07075 -2.00927 30156 ft 443 kts 42°
2026-04-21 14:27 57.09417 -1.97327 30538 ft 443 kts 42°
2026-04-21 14:27 57.11797 -1.93662 30918 ft 443 kts 42°
2026-04-21 14:27 57.14142 -1.90047 31301 ft 443 kts 42°
2026-04-21 14:27 57.16480 -1.86438 31632 ft 442 kts 42°
2026-04-21 14:28 57.18817 -1.82819 31980 ft 441 kts 41°
2026-04-21 14:28 57.21148 -1.79205 32324 ft 440 kts 41°
2026-04-21 14:28 57.23473 -1.75595 32647 ft 439 kts 41°
2026-04-21 14:28 57.25799 -1.71978 32950 ft 438 kts 41°
2026-04-21 14:29 57.28144 -1.68326 33206 ft 438 kts 41°
2026-04-21 14:29 57.30439 -1.64744 33438 ft 438 kts 41°
2026-04-21 14:29 57.32759 -1.61119 33671 ft 438 kts 41°
2026-04-21 14:29 57.35076 -1.57492 33897 ft 437 kts 41°
2026-04-21 14:30 57.37389 -1.53866 34131 ft 437 kts 41°
2026-04-21 14:30 57.39710 -1.50222 34343 ft 437 kts 41°
2026-04-21 14:30 57.41998 -1.46622 34552 ft 437 kts 41°
2026-04-21 14:30 57.44306 -1.42982 34774 ft 436 kts 41°
2026-04-21 14:31 57.46605 -1.39352 34985 ft 436 kts 41°
2026-04-21 14:31 57.48854 -1.35577 35177 ft 435 kts 45°
2026-04-21 14:31 57.50939 -1.31514 35371 ft 434 kts 50°
2026-04-21 14:31 57.52831 -1.27230 35568 ft 434 kts 53°
2026-04-21 14:32 57.54572 -1.22628 35762 ft 433 kts 58°
2026-04-21 14:32 57.56117 -1.17823 35947 ft 432 kts 62°
2026-04-21 14:32 57.57450 -1.12880 36125 ft 432 kts 65°
2026-04-21 14:32 57.58647 -1.07750 36301 ft 431 kts 67°
2026-04-21 14:33 57.59803 -1.02635 36451 ft 431 kts 67°
2026-04-21 14:33 57.60965 -0.97450 36599 ft 432 kts 67°
2026-04-21 14:33 57.62116 -0.92305 36751 ft 432 kts 67°
2026-04-21 14:33 57.63269 -0.87148 36895 ft 432 kts 67°
2026-04-21 14:34 57.64406 -0.82054 37043 ft 432 kts 67°
2026-04-21 14:34 57.65559 -0.76879 37186 ft 432 kts 67°
2026-04-21 14:34 57.66711 -0.71697 37325 ft 433 kts 67°
2026-04-21 14:34 57.67867 -0.66493 37456 ft 433 kts 67°
2026-04-21 14:35 57.69004 -0.61357 37589 ft 433 kts 67°
2026-04-21 14:35 57.70161 -0.56120 37712 ft 433 kts 67°
2026-04-21 14:35 57.71293 -0.50987 37822 ft 434 kts 67°
2026-04-21 14:36 57.73583 -0.40557 38015 ft 435 kts 67°
2026-04-21 14:36 57.75870 -0.30085 38214 ft 436 kts 68°
2026-04-21 14:37 57.78142 -0.19631 38391 ft 437 kts 68°
2026-04-21 14:37 57.80430 -0.09056 38562 ft 439 kts 68°
2026-04-21 14:38 57.82700 0.01489 38751 ft 440 kts 68°
2026-04-21 14:38 57.84981 0.12142 38939 ft 441 kts 68°
2026-04-21 14:39 57.87253 0.22811 39115 ft 442 kts 68°
2026-04-21 14:39 57.89504 0.33443 39303 ft 442 kts 68°
2026-04-21 14:40 57.91761 0.44182 39435 ft 443 kts 68°
2026-04-21 14:40 57.94006 0.54911 39557 ft 444 kts 68°
2026-04-21 14:41 57.96258 0.65724 39565 ft 445 kts 68°
2026-04-21 14:41 57.98502 0.76558 39567 ft 445 kts 68°
2026-04-21 14:42 58.00738 0.87404 39568 ft 445 kts 68°
2026-04-21 14:42 58.02954 0.98219 39564 ft 445 kts 68°
2026-04-21 14:43 58.05162 1.09055 39567 ft 444 kts 68°
2026-04-21 14:43 58.07365 1.19929 39561 ft 444 kts 68°
2026-04-21 14:44 58.09544 1.30733 39556 ft 444 kts 68°
2026-04-21 14:44 58.11738 1.41675 39548 ft 444 kts 68°
2026-04-21 14:45 58.13903 1.52527 39549 ft 444 kts 68°
2026-04-21 14:45 58.16067 1.63434 39554 ft 444 kts 68°
2026-04-21 14:46 58.18213 1.74324 39552 ft 445 kts 69°
2026-04-21 14:46 58.20365 1.85296 39552 ft 445 kts 69°
2026-04-21 14:47 58.22509 1.96285 39551 ft 445 kts 69°
2026-04-21 14:47 58.24626 2.07198 39557 ft 444 kts 69°
2026-04-21 14:48 58.26743 2.18168 39557 ft 444 kts 69°
2026-04-21 14:48 58.28859 2.29198 39550 ft 445 kts 69°
2026-04-21 14:49 58.30962 2.40223 39554 ft 446 kts 69°
2026-04-21 14:49 58.33046 2.51213 39550 ft 446 kts 69°
2026-04-21 14:50 58.34797 2.60489 39549 ft 446 kts 69°
2026-04-21 14:50 58.37207 2.73341 39547 ft 446 kts 70°
2026-04-21 14:51 58.39272 2.84470 39547 ft 446 kts 71°
2026-04-21 14:51 58.41140 2.95647 39538 ft 446 kts 72°
2026-04-21 14:52 58.42978 3.06933 39520 ft 446 kts 72°
2026-04-21 14:52 58.44807 3.18166 39533 ft 447 kts 72°
2026-04-21 14:53 58.46638 3.29449 39535 ft 447 kts 72°
2026-04-21 14:53 58.48463 3.40754 39526 ft 447 kts 72°
2026-04-21 14:54 58.50277 3.52055 39527 ft 446 kts 72°
2026-04-21 14:54 58.52085 3.63389 39527 ft 446 kts 72°
2026-04-21 14:55 58.53880 3.74705 39516 ft 446 kts 73°
2026-04-21 14:55 58.55665 3.86045 39527 ft 447 kts 73°
2026-04-21 14:56 58.57433 3.97367 39517 ft 448 kts 73°
2026-04-21 14:56 58.59200 4.08746 39516 ft 447 kts 73°
2026-04-21 14:57 58.60959 4.20142 39515 ft 447 kts 73°
2026-04-21 14:57 58.62705 4.31534 39513 ft 446 kts 73°
2026-04-21 14:58 58.64437 4.42908 39516 ft 446 kts 73°
2026-04-21 14:58 58.66154 4.54254 39512 ft 446 kts 73°
2026-04-21 14:59 58.67867 4.65661 39507 ft 447 kts 74°
2026-04-21 14:59 58.69571 4.77097 39495 ft 446 kts 74°
2026-04-21 15:00 58.71267 4.88564 39491 ft 446 kts 74°
2026-04-21 15:00 58.72945 4.99981 39485 ft 446 kts 74°
2026-04-21 15:01 58.74609 5.11373 39482 ft 446 kts 74°
2026-04-21 15:01 58.76273 5.22839 39484 ft 446 kts 74°
2026-04-21 15:02 58.77919 5.34276 39487 ft 446 kts 73°
2026-04-21 15:02 58.79564 5.45779 39486 ft 445 kts 73°
2026-04-21 15:03 58.81189 5.57216 39493 ft 446 kts 73°
2026-04-21 15:03 58.82810 5.68708 39490 ft 446 kts 75°
2026-04-21 15:04 58.84430 5.80284 39488 ft 446 kts 75°
2026-04-21 15:04 58.86029 5.91792 39475 ft 446 kts 75°
2026-04-21 15:05 58.87616 6.03297 39471 ft 446 kts 75°
2026-04-21 15:05 58.89978 6.20580 39473 ft 446 kts 75°
2026-04-21 15:06 58.91549 6.32182 39458 ft 445 kts 75°
2026-04-21 15:06 58.93093 6.43663 39441 ft 445 kts 75°
2026-04-21 15:07 58.94636 6.55230 39413 ft 444 kts 75°
2026-04-21 15:07 58.96165 6.66787 39404 ft 443 kts 75°
2026-04-21 15:08 58.97674 6.78261 39394 ft 442 kts 75°
2026-04-21 15:08 58.99180 6.89787 39385 ft 443 kts 75°
2026-04-21 15:09 59.00679 7.01354 39380 ft 444 kts 75°
2026-04-21 15:09 59.02159 7.12877 39378 ft 444 kts 75°
2026-04-21 15:10 59.03634 7.24453 39392 ft 444 kts 75°
2026-04-21 15:10 59.05100 7.36060 39400 ft 443 kts 75°
2026-04-21 15:11 59.06556 7.47680 39408 ft 442 kts 75°
2026-04-21 15:11 59.07988 7.59190 39410 ft 442 kts 75°
2026-04-21 15:12 59.09427 7.70839 39420 ft 443 kts 76°
2026-04-21 15:12 59.10853 7.82466 39214 ft 444 kts 76°
2026-04-21 15:13 59.11328 7.86365 39052 ft 442 kts 76°
2026-04-21 15:13 59.12262 7.94060 38762 ft 439 kts 76°
2026-04-21 15:13 59.12954 7.99785 38577 ft 437 kts 76°
2026-04-21 15:13 59.13641 8.05495 38356 ft 434 kts 76°
2026-04-21 15:14 59.14324 8.11208 38017 ft 434 kts 76°
2026-04-21 15:14 59.15009 8.16943 37519 ft 437 kts 77°
2026-04-21 15:14 59.15692 8.22681 36543 ft 442 kts 77°
2026-04-21 15:14 59.16381 8.28504 36051 ft 447 kts 77°
2026-04-21 15:15 59.17076 8.34397 35551 ft 451 kts 77°
2026-04-21 15:15 59.17775 8.40362 34909 ft 454 kts 77°
2026-04-21 15:15 59.18474 8.46367 34061 ft 456 kts 78°
2026-04-21 15:15 59.19167 8.52336 33190 ft 458 kts 78°
2026-04-21 15:16 59.19868 8.58407 32266 ft 460 kts 78°
2026-04-21 15:16 59.20564 8.64451 31312 ft 463 kts 78°
2026-04-21 15:16 59.21260 8.70528 30280 ft 465 kts 79°
2026-04-21 15:16 59.21958 8.76650 29186 ft 468 kts 79°
2026-04-21 15:17 59.22661 8.82840 28020 ft 471 kts 79°
2026-04-21 15:17 59.23368 8.89093 26803 ft 474 kts 79°
2026-04-21 15:17 59.24068 8.95312 25552 ft 478 kts 79°
2026-04-21 15:17 59.24780 9.01669 24340 ft 479 kts 79°
2026-04-21 15:18 59.25483 9.07968 23484 ft 472 kts 79°
2026-04-21 15:18 59.26166 9.14118 22863 ft 458 kts 79°
2026-04-21 15:18 59.26826 9.20088 22376 ft 445 kts 79°
2026-04-21 15:18 59.27453 9.25765 22069 ft 418 kts 79°
2026-04-21 15:19 59.28047 9.31178 21766 ft 391 kts 79°
2026-04-21 15:19 59.28591 9.36148 21496 ft 368 kts 79°
2026-04-21 15:19 59.29113 9.40936 21216 ft 346 kts 79°
2026-04-21 15:19 59.29597 9.45401 20967 ft 329 kts 79°
2026-04-21 15:20 59.30058 9.49669 20742 ft 320 kts 79°
2026-04-21 15:20 59.30511 9.53890 20530 ft 315 kts 79°
2026-04-21 15:20 59.30960 9.58091 20338 ft 314 kts 79°
2026-04-21 15:20 59.31402 9.62239 20151 ft 313 kts 79°
2026-04-21 15:21 59.31843 9.66377 19977 ft 312 kts 79°
2026-04-21 15:21 59.32290 9.70539 19813 ft 311 kts 77°
2026-04-21 15:21 59.33067 9.74444 19647 ft 311 kts 60°
2026-04-21 15:21 59.34409 9.77766 19298 ft 314 kts 44°
2026-04-21 15:22 59.36073 9.80509 18920 ft 313 kts 40°
2026-04-21 15:22 59.37765 9.83143 18580 ft 312 kts 39°
2026-04-21 15:22 59.39463 9.85787 18221 ft 311 kts 40°
2026-04-21 15:22 59.41121 9.88392 17950 ft 305 kts 40°
2026-04-21 15:23 59.42759 9.90984 17687 ft 300 kts 40°
2026-04-21 15:23 59.44353 9.93520 17350 ft 292 kts 40°
2026-04-21 15:23 59.45918 9.96018 16923 ft 289 kts 40°
2026-04-21 15:23 59.47465 9.98493 16563 ft 288 kts 39°
2026-04-21 15:24 59.49008 10.00967 16228 ft 285 kts 39°
2026-04-21 15:24 59.50529 10.03409 15847 ft 280 kts 39°
2026-04-21 15:24 59.52009 10.05788 15260 ft 277 kts 39°
2026-04-21 15:24 59.53482 10.08157 14959 ft 272 kts 39°
2026-04-21 15:25 59.54951 10.10522 14742 ft 273 kts 39°
2026-04-21 15:25 59.56416 10.12886 14535 ft 272 kts 39°
2026-04-21 15:25 59.57845 10.15195 14214 ft 260 kts 39°
2026-04-21 15:25 59.59201 10.17388 14012 ft 249 kts 39°
2026-04-21 15:26 59.60527 10.19535 13701 ft 243 kts 39°
2026-04-21 15:26 59.61802 10.21600 13391 ft 232 kts 39°
2026-04-21 15:26 59.63006 10.23553 13153 ft 221 kts 38°
2026-04-21 15:26 59.64195 10.25481 12936 ft 227 kts 38°
2026-04-21 15:27 59.65524 10.27633 12678 ft 259 kts 38°
2026-04-21 15:27 59.66925 10.29910 12330 ft 264 kts 38°
2026-04-21 15:27 59.68338 10.32211 11985 ft 265 kts 38°
2026-04-21 15:27 59.69763 10.34537 11646 ft 264 kts 38°
2026-04-21 15:28 59.71166 10.36824 11562 ft 262 kts 38°
2026-04-21 15:28 59.72585 10.39058 11446 ft 258 kts 31°
2026-04-21 15:28 59.74223 10.40078 11369 ft 248 kts 359°
2026-04-21 15:28 59.75905 10.39304 11359 ft 250 kts 332°
2026-04-21 15:29 59.77297 10.37237 11380 ft 249 kts 323°
2026-04-21 15:29 59.78794 10.35677 11100 ft 246 kts 352°
2026-04-21 15:29 59.80461 10.36171 10681 ft 246 kts 29°
2026-04-21 15:29 59.81609 10.38565 10296 ft 247 kts 62°
2026-04-21 15:30 59.82256 10.41734 10007 ft 246 kts 65°
2026-04-21 15:30 59.82997 10.44782 9680 ft 244 kts 58°
2026-04-21 15:30 59.83882 10.47661 9347 ft 242 kts 54°
2026-04-21 15:30 59.84843 10.50362 9025 ft 241 kts 51°
2026-04-21 15:31 59.85860 10.52993 8722 ft 239 kts 49°
2026-04-21 15:31 59.86899 10.55559 8393 ft 238 kts 49°
2026-04-21 15:31 59.87943 10.58075 8073 ft 237 kts 48°
2026-04-21 15:31 59.89002 10.60597 7775 ft 235 kts 47°
2026-04-21 15:32 59.90056 10.63088 7455 ft 234 kts 47°
2026-04-21 15:32 59.91096 10.65540 7134 ft 233 kts 48°
2026-04-21 15:32 59.92139 10.68000 6823 ft 231 kts 48°
2026-04-21 15:32 59.93171 10.70430 6527 ft 230 kts 48°
2026-04-21 15:33 59.94196 10.72847 6227 ft 228 kts 48°
2026-04-21 15:33 59.95219 10.75261 5920 ft 227 kts 48°
2026-04-21 15:33 59.96241 10.77676 5652 ft 224 kts 48°
2026-04-21 15:33 59.97149 10.80104 5476 ft 218 kts 59°
2026-04-21 15:34 59.97700 10.82877 5328 ft 213 kts 71°
2026-04-21 15:34 59.98061 10.85707 5184 ft 206 kts 73°
2026-04-21 15:34 59.98384 10.88434 5026 ft 199 kts 73°
2026-04-21 15:34 59.98700 10.91076 4793 ft 197 kts 73°
2026-04-21 15:35 59.99024 10.93740 4516 ft 197 kts 72°
2026-04-21 15:35 59.99591 10.96158 4199 ft 191 kts 39°
2026-04-21 15:35 60.00722 10.97397 3926 ft 186 kts 16°
2026-04-21 15:35 60.01981 10.98053 3662 ft 186 kts 12°
2026-04-21 15:36 60.03240 10.98641 3396 ft 185 kts 13°
2026-04-21 15:36 60.04472 10.99273 3327 ft 185 kts 14°
2026-04-21 15:36 60.05675 10.99937 3290 ft 175 kts 15°
2026-04-21 15:36 60.06833 11.00603 3040 ft 171 kts 15°
2026-04-21 15:37 60.07950 11.01254 2797 ft 167 kts 15°
2026-04-21 15:37 60.09042 11.01893 2563 ft 162 kts 15°
2026-04-21 15:37 60.10099 11.02510 2337 ft 153 kts 15°
2026-04-21 15:37 60.11120 11.03103 2141 ft 152 kts 15°
2026-04-21 15:38 60.12139 11.03694 1978 ft 151 kts 15°
2026-04-21 15:38 60.13125 11.04267 1781 ft 143 kts 14°
2026-04-21 15:38 60.14032 11.04795 1560 ft 130 kts 14°
2026-04-21 15:38 60.14865 11.05302 1360 ft 124 kts 15°
2026-04-21 15:39 60.15691 11.05800 1227 ft 124 kts 13°
2026-04-21 15:39 60.16533 11.06228 1089 ft 124 kts 14°
2026-04-21 15:39 60.17360 11.06712 946 ft 124 kts 14°
2026-04-21 15:39 60.18181 11.07183 776 ft 123 kts 15°
2026-04-21 15:40 60.18993 11.07663 676 ft 116 kts 15°
2026-04-21 15:40 60.19604 11.08011 680 ft 68 kts 18°
2026-04-21 15:40 60.19895 11.08177 686 ft 17 kts 17°
2026-04-21 15:40 60.19922 11.08210 686 ft 6 kts 65°
2026-04-21 15:41 60.19935 11.08310 687 ft 5 kts 109°
2026-04-21 15:41 60.19907 11.08388 686 ft 8 kts 124°
2026-04-21 15:41 60.19885 11.08503 686 ft 9 kts 105°
2026-04-21 15:41 60.19869 11.08624 688 ft 8 kts 104°
2026-04-21 15:42 60.19852 11.08748 688 ft 11 kts 105°
2026-04-21 15:42 60.19827 11.08919 686 ft 14 kts 106°
2026-04-21 15:42 60.19794 11.09147 685 ft 18 kts 105°
2026-04-21 15:42 60.19758 11.09390 685 ft 18 kts 106°
2026-04-21 15:43 60.19725 11.09627 684 ft 17 kts 104°
2026-04-21 15:43 60.19688 11.09850 685 ft 10 kts 107°
2026-04-21 15:43 60.19673 11.09948 687 ft 3 kts 106°
2026-04-21 15:43 60.19671 11.09967 687 ft 0 kts 106°